Weather History for 78774 - August, 2013

Change the Weather History Date:

Wednesday, August 21, 2013

  Actual Average Record
Temperature  
Mean Temperature 84 °F -  
Max Temperature 94 °F 86 °F - ()
Min Temperature 75 °F 73 °F - ()
Cooling Degree Days 20    
Growing Degree Days 34 (Base 50)    
Moisture  
Dew Point 73 °F    
Average Humidity 67    
Maximum Humidity 88    
Minimum Humidity 48    
Precipitation  
Precipitation 0.87 in - - ()
Sea Level Pressure  
Sea Level Pressure 29.81 in    
Wind  
Wind Speed 6 mph ()    
Max Wind Speed 16 mph    
Max Gust Speed -    
Visibility 7.3 miles    
Events Rain    
T = Trace of Precipitation, MM = Missing Value Source: Averaged Metar Reports

Daily Weather History Graph

Daily Weather History Graph

Search for Another Location

Airport or City:

Trip Planner

Search our weather history database for the weather conditions in past years. The results will help you decide how hot, cold, wet, or windy it might be!

Date:

Astronomy

Aug. 21, 2013 Rise Set
Actual Time 5:32 AM CST 5:57 PM CST
Civil Twilight 5:11 AM CST 6:19 PM CST
Nautical Twilight 4:45 AM CST 6:44 PM CST
Astronomical Twilight 4:20 AM CST 7:09 PM CST
Moon 6:29 PM CST (8/21) 5:55 AM CST (8/21)
Length of Visible Light 13h 07m
Length of Day
12h 24m
Full, 99% of the Moon is Illuminated
Aug 21
Full
Aug 28
Last Quarter
Sep 5
New
Sep 12
First Quarter
Sep 19
Full

Hourly Weather History & Observations

Time (CST) Temp. Heat Index Dew Point Humidity Pressure Visibility Wind Dir Wind Speed Gust Speed Precip Events Conditions
6:00 AM 76 °F - 72 °F 85% 29.83 in 12 mi Calm Calm - -   Scattered Clouds
6:00 AM 77.0 °F - 71.6 °F 83% 29.81 in 6.2 mi Calm Calm - N/A   Mostly Cloudy
7:00 AM 78.8 °F - 73.4 °F 83% 29.84 in 6.2 mi ENE 4.6 mph - N/A   Mostly Cloudy
8:00 AM 84.2 °F 92.3 °F 75.2 °F 74% 29.85 in 6.2 mi Calm Calm - N/A   Mostly Cloudy
9:00 AM 87.8 °F 97.6 °F 75.2 °F 66% 29.85 in 6.2 mi WSW 3.5 mph - N/A   Mostly Cloudy
10:00 AM 87.8 °F 95.6 °F 73.4 °F 62% 29.85 in 6.2 mi East 6.9 mph - N/A   Mostly Cloudy
11:00 AM 87.8 °F 93.8 °F 71.6 °F 58% 29.84 in 6.2 mi NE 16.1 mph - N/A   Mostly Cloudy
12:00 PM 87 °F - 72 °F 53% 29.84 in 12 mi East 15.0 mph - -   Overcast
12:00 PM 87.8 °F 93.8 °F 71.6 °F 58% 29.83 in 6.2 mi East 15.0 mph - N/A   Mostly Cloudy
1:00 PM 89.6 °F 96.2 °F 71.6 °F 55% 29.80 in 6.2 mi East 12.7 mph - N/A   Mostly Cloudy
2:00 PM 91.4 °F 102.5 °F 75.2 °F 59% 29.77 in 6.2 mi ESE 11.5 mph - N/A   Mostly Cloudy
3:00 PM 89 °F - 72 °F 48% 29.78 in 12 mi East 10.4 mph - -   Overcast
3:00 PM 87.8 °F 93.8 °F 71.6 °F 58% 29.77 in 6.2 mi East 10.4 mph - N/A   Overcast
4:00 PM 86.0 °F 91.8 °F 71.6 °F 62% 29.77 in 6.2 mi East 10.4 mph - N/A   Overcast
5:00 PM 84.2 °F 89.6 °F 71.6 °F 66% 29.78 in 6.2 mi East 8.1 mph - N/A   Overcast
6:00 PM 77 °F - 74 °F 88% 29.77 in 9 mi East 4.6 mph - - Rain Light Drizzle
6:00 PM 82.4 °F 87.2 °F 71.6 °F 70% 29.80 in 6.2 mi ENE 8.1 mph - N/A   Overcast
7:00 PM 82.4 °F 87.2 °F 71.6 °F 70% 29.82 in 6.2 mi ENE 6.9 mph - N/A   Overcast
8:00 PM 80.6 °F 84.6 °F 71.6 °F 74% 29.84 in 6.2 mi ENE 5.8 mph - N/A   Mostly Cloudy